This is the latest recevied weather packets stored in our database for station/object AC8JV. If no packets are shown the sender has not sent any weather packets the latest 10 day(s).
| Time | Temp. | Humidity | Pressure | Rain* | Wind** | Luminosity | Snow |
|---|---|---|---|---|---|---|---|
| 1777159246 | 17.22° C | 64% | 1016.3 hPa | 0 mm | - | - | - |
| 1777158610 | 17.78° C | 62% | 1016.1 hPa | 0 mm | - | - | - |
| 1777158009 | 18.33° C | 61% | 1016 hPa | 0 mm | - | - | - |
| 1777157417 | 18.89° C | 61% | 1015.8 hPa | 0 mm | - | - | - |
| 1777156843 | 18.89° C | 61% | 1015.5 hPa | 0 mm | - | - | - |
| 1777156202 | 19.44° C | 60% | 1015.3 hPa | 0 mm | - | - | - |
| 1777155618 | 19.44° C | 59% | 1015.2 hPa | 0 mm | - | - | - |
| 1777155004 | 19.44° C | 58% | 1015.1 hPa | 0 mm | - | - | - |
| 1777154412 | 20° C | 58% | 1015.1 hPa | 0 mm | - | - | - |
| 1777153805 | 20° C | 56% | 1014.9 hPa | 0 mm | - | - | - |
| 1777153203 | 20° C | 56% | 1014.8 hPa | 0 mm | - | - | - |
| 1777152606 | 20.56° C | 55% | 1014.6 hPa | 0 mm | - | - | - |
| 1777151998 | 20.56° C | 55% | 1014.7 hPa | 0 mm | - | - | - |
| 1777151411 | 20.56° C | 55% | 1014.6 hPa | 0 mm | - | - | - |
| 1777150800 | 20.56° C | 56% | 1014.6 hPa | 0 mm | - | - | - |
| 1777150224 | 21.11° C | 54% | 1014.6 hPa | 0 mm | - | - | - |
| 1777149608 | 21.11° C | 54% | 1014.6 hPa | 0 mm | - | - | - |
| 1777149018 | 21.11° C | 54% | 1014.6 hPa | 0 mm | - | - | - |
| 1777148398 | 20.56° C | 54% | 1014.6 hPa | 0 mm | - | - | - |
| 1777147805 | 20.56° C | 53% | 1014.5 hPa | 0 mm | - | - | - |
| 1777147209 | 21.11° C | 55% | 1014.4 hPa | 0 mm | - | - | - |
| 1777146603 | 20.56° C | 55% | 1014.4 hPa | 0 mm | - | - | - |
| 1777146003 | 20.56° C | 54% | 1014.4 hPa | 0 mm | - | - | - |
| 1777145409 | 20° C | 58% | 1014.5 hPa | 0 mm | - | - | - |
| 1777144800 | 20° C | 56% | 1014.5 hPa | 0 mm | - | - | - |
* Rain latest hour (hover to see other rain measurements)
** Current wind speed in m/s (hover to see current wind gust speed)